Date String (YYYY-MM-DD hh:mm:ss) UTC,Instrument flags,Ambient pressure (hPa),Sample flow (lpm),Bypass flow (lpm),Sample temperature (°C),Ambient temperature (°C),ASC tube jacket temperature (°C),LED temperature (°C),Box temperature (°C),Sample RH (%),Span deviation,Mass concentration (μg/m³),Mass concentration (μg/m³),Mass concentration (μg/m³)
DateTimeUTC,F1_M11,P_M11,Q1_M11,Q2_M11,T1_M11,T2_M11,T3_M11,T4_M11,T5_M11,U1_M11,ZSPAN_M11,X0_M11,X2_M11,X1_M11
2021-09-04 19:00:00,,0830.1,4.99,0.00,29.4,28.2,00.0,38.4,31.2,26.6,0001.2,0020.22,0012.48,0011.72
2021-09-04 19:01:00,,0830.1,5.00,0.00,29.4,28.4,00.0,38.4,31.3,26.6,0001.4,0021.08,0012.50,0011.74
2021-09-04 19:02:00,,0830.1,4.99,0.00,29.5,28.5,00.0,38.4,31.4,26.4,0001.5,0021.84,0012.51,0011.79
2021-09-04 19:03:00,,0830.1,5.00,0.00,29.5,28.7,00.0,38.4,31.4,26.3,0001.4,0021.76,0012.48,0011.82
2021-09-04 19:04:00,,0830.1,5.00,0.00,29.5,28.1,00.0,38.4,31.3,25.7,0001.3,0021.63,0012.46,0011.87
2021-09-04 19:05:00,,0830.1,5.01,0.00,29.4,26.4,00.0,38.4,30.9,26.2,0001.3,0021.44,0012.51,0011.90
2021-09-04 19:06:00,,0830.1,4.99,0.00,29.3,25.9,00.0,38.4,30.7,26.7,0001.2,0020.68,0012.53,0011.94
2021-09-04 19:07:00,,0829.9,5.02,0.00,29.2,26.2,00.0,38.4,30.8,26.4,0001.3,0020.41,0012.61,0012.00
2021-09-04 19:08:00,,0829.9,4.98,0.00,29.2,26.7,00.0,38.4,30.9,25.6,0001.3,0020.57,0012.67,0012.06
2021-09-04 19:09:00,,0830.1,5.00,0.00,29.2,27.1,00.0,38.3,30.9,25.2,0001.3,0021.04,0012.74,0012.13
2021-09-04 19:10:00,,0830.0,5.00,0.00,29.3,27.5,00.0,38.3,31.0,25.5,0001.2,0021.25,0012.80,0012.18
2021-09-04 19:11:00,,0830.0,4.99,0.00,29.3,27.8,00.0,38.3,31.1,25.6,0001.1,0021.00,0012.88,0012.25
2021-09-04 19:12:00,,0830.0,5.00,0.00,29.3,28.1,00.0,38.3,31.2,25.1,0001.0,0019.70,0012.90,0012.29
2021-09-04 19:13:00,,0830.0,5.01,0.00,29.4,28.3,00.0,38.3,31.3,25.0,0001.0,0018.77,0012.96,0012.33
2021-09-04 19:14:00,,0829.9,5.00,0.00,29.4,28.5,00.0,38.4,31.3,24.6,0001.1,0019.18,0013.01,0012.38
2021-09-04 19:15:00,,0829.9,4.99,0.00,29.5,28.7,00.0,38.4,31.4,24.2,0001.5,0019.32,0013.06,0012.41
2021-09-04 19:16:00,,0829.9,5.00,0.00,29.5,28.4,00.0,38.4,31.3,23.2,0001.6,0019.77,0013.11,0012.45
2021-09-04 19:17:00,,0829.9,5.01,0.00,29.4,26.7,00.0,38.4,30.8,22.7,0001.7,0019.69,0013.20,0012.54
2021-09-04 19:18:00,,0829.9,5.00,0.00,29.3,25.8,00.0,38.4,30.6,23.1,0001.9,0019.97,0013.28,0012.62
2021-09-04 19:19:00,,0829.9,5.01,0.00,29.2,26.1,00.0,38.4,30.7,23.7,0002.0,0019.84,0013.35,0012.69
2021-09-04 19:20:00,,0829.9,4.99,0.00,29.2,26.5,00.0,38.3,30.8,24.2,0002.0,0019.90,0013.39,0012.72
2021-09-04 19:21:00,,0829.8,5.01,0.00,29.2,27.0,00.0,38.3,30.9,24.8,0002.2,0020.50,0013.45,0012.78
2021-09-04 19:22:00,,0829.7,4.99,0.00,29.2,27.4,00.0,38.3,31.0,25.2,0002.2,0020.71,0013.55,0012.86
2021-09-04 19:23:00,,0829.8,5.01,0.00,29.2,27.8,00.0,38.3,31.1,25.1,0002.1,0021.50,0013.64,0012.94
2021-09-04 19:24:00,,0829.7,4.98,0.00,29.3,28.0,00.0,38.3,31.2,24.7,0002.1,0021.74,0013.75,0012.99
2021-09-04 19:25:00,,0829.7,5.00,0.00,29.3,28.3,00.0,38.3,31.2,24.6,0002.2,0021.31,0013.83,0013.05
2021-09-04 19:26:00,,0829.7,5.01,0.00,29.4,28.5,00.0,38.3,31.3,24.8,0002.1,0021.31,0013.89,0013.10
2021-09-04 19:27:00,,0829.7,4.98,0.00,29.5,28.6,00.0,38.4,31.4,24.5,0002.0,0021.62,0013.97,0013.18
2021-09-04 19:28:00,,0829.7,5.01,0.00,29.5,28.8,00.0,38.4,31.4,24.3,0001.7,0021.84,0014.01,0013.23
2021-09-04 19:29:00,,0829.6,5.02,0.00,29.5,28.2,00.0,38.4,31.3,24.4,0001.7,0021.69,0014.06,0013.28
2021-09-04 19:30:00,,0829.7,4.99,0.00,29.4,26.4,00.0,38.4,30.8,24.2,0001.5,0021.68,0014.09,0013.32
2021-09-04 19:31:00,,0829.9,5.00,0.00,29.3,25.8,00.0,38.4,30.6,24.4,0001.5,0021.58,0014.16,0013.39
2021-09-04 19:32:00,,0829.8,4.99,0.00,29.2,26.2,00.0,38.4,30.7,24.7,0001.2,0021.24,0014.20,0013.44
2021-09-04 19:33:00,,0829.8,5.00,0.00,29.2,26.6,00.0,38.3,30.8,24.8,0001.2,0021.49,0014.23,0013.49
2021-09-04 19:34:00,,0829.6,5.01,0.00,29.2,27.1,00.0,38.3,30.9,24.9,0001.3,0021.34,0014.26,0013.51
2021-09-04 19:35:00,,0829.6,4.99,0.00,29.2,27.5,00.0,38.3,31.0,24.9,0001.4,0021.85,0014.25,0013.53
2021-09-04 19:36:00,,0829.7,5.01,0.00,29.3,27.8,00.0,38.3,31.1,24.6,0001.3,0021.89,0014.25,0013.57
2021-09-04 19:37:00,,0829.7,5.00,0.00,29.3,28.1,00.0,38.3,31.2,24.3,0001.0,0021.72,0014.29,0013.60
2021-09-04 19:38:00,,0829.8,5.00,0.00,29.4,28.3,00.0,38.3,31.3,24.2,0000.9,0021.01,0014.27,0013.59
2021-09-04 19:39:00,,0829.7,5.01,0.00,29.4,28.5,00.0,38.4,31.3,24.2,0001.2,0020.93,0014.28,0013.59
2021-09-04 19:40:00,,0829.8,4.99,0.00,29.5,28.7,00.0,38.4,31.4,24.2,0001.3,0021.36,0014.24,0013.58
2021-09-04 19:41:00,,0829.7,4.99,0.00,29.5,28.8,00.0,38.4,31.5,23.9,0001.3,0021.46,0014.28,0013.60
2021-09-04 19:42:00,,0829.7,4.99,0.00,29.6,28.7,00.0,38.4,31.4,23.8,0001.3,0021.45,0014.28,0013.60
2021-09-04 19:43:00,,0829.6,5.00,0.00,29.5,27.1,00.0,38.4,31.1,24.0,0001.5,0021.34,0014.28,0013.60
2021-09-04 19:44:00,,0829.6,5.01,0.00,29.4,25.9,00.0,38.4,30.7,24.4,0001.6,0021.21,0014.34,0013.61
2021-09-04 19:45:00,,0829.6,5.00,0.00,29.3,26.1,00.0,38.4,30.8,24.5,0001.6,0020.69,0014.36,0013.65
2021-09-04 19:46:00,,0829.5,4.99,0.00,29.3,26.6,00.0,38.4,30.9,24.4,0001.5,0020.24,0014.35,0013.67
2021-09-04 19:47:00,,0829.5,4.99,0.00,29.3,27.0,00.0,38.3,30.9,24.4,0001.6,0020.29,0014.37,0013.69
2021-09-04 19:48:00,,0829.6,5.01,0.00,29.3,27.4,00.0,38.3,31.0,24.1,0001.8,0020.13,0014.35,0013.68
2021-09-04 19:49:00,,0829.5,5.00,0.00,29.3,27.8,00.0,38.3,31.1,23.9,0002.0,0019.94,0014.37,0013.70
2021-09-04 19:50:00,,0829.5,5.00,0.00,29.4,28.1,00.0,38.4,31.2,24.0,0001.8,0019.95,0014.43,0013.73
2021-09-04 19:51:00,,0829.5,4.99,0.00,29.4,28.3,00.0,38.4,31.3,24.2,0001.9,0019.75,0014.50,0013.77
2021-09-04 19:52:00,,0829.5,5.01,0.00,29.5,28.5,00.0,38.4,31.4,23.9,0001.8,0019.69,0014.48,0013.73
2021-09-04 19:53:00,,0829.5,5.00,0.00,29.5,28.7,00.0,38.4,31.4,23.9,0002.0,0019.57,0014.50,0013.76
2021-09-04 19:54:00,,0829.5,5.00,0.00,29.6,28.8,00.0,38.5,31.5,23.4,0002.0,0019.86,0014.57,0013.80
2021-09-04 19:55:00,,0829.5,5.00,0.00,29.6,28.5,00.0,38.5,31.4,23.1,0002.0,0019.75,0014.58,0013.83
2021-09-04 19:56:00,,0829.5,5.00,0.00,29.5,26.7,00.0,38.5,30.9,22.7,0002.2,0020.18,0014.60,0013.86
2021-09-04 19:57:00,,0829.6,5.00,0.00,29.3,25.8,00.0,38.5,30.7,22.8,0002.1,0020.19,0014.66,0013.91
2021-09-04 19:58:00,,0829.6,4.99,0.00,29.3,26.2,00.0,38.4,30.8,23.2,0002.0,0019.96,0014.68,0013.94
2021-09-04 19:59:00,,0829.6,5.00,0.00,29.2,26.6,00.0,38.4,30.9,23.4,0001.9,0020.16,0014.69,0013.97
